Lexington Weather

Lexington, Massachusetts, USA

48°F
12/8/2022 3:08pm 
  • Lexington Conditions: Clear
  • Temperature: 48.4°F / 9.1°CColder 1.1°F than last hour.
  • Dew Point: 35.6°FIncreased 0.7°Fsince last hour.
  • Relative Humidity: 61%Increased 4.0% since last hour.
  • Wind: Wind from NNW NNW Calm, 10-min avg: 1 mph, gust: 6 mph
  • Barometer: 30.08 inRising 0.02  inHg/hr Rising Slowly
  • Visibility: 10 miles
  • Rain Today: 0.00 in
  •   

Warning: Undefined variable $rc in /homepages/6/d276339138/htdocs/weather/20190804/ssi/nwsProduct.php on line 323

Warning: Undefined variable $rc in /homepages/6/d276339138/htdocs/weather/20190804/ssi/nwsProduct.php on line 325

Warning: Undefined variable $rc in /homepages/6/d276339138/htdocs/weather/20190804/ssi/nwsProduct.php on line 323

Warning: Undefined variable $rc in /homepages/6/d276339138/htdocs/weather/20190804/ssi/nwsProduct.php on line 325

Warning: Undefined variable $rc in /homepages/6/d276339138/htdocs/weather/20190804/ssi/nwsProduct.php on line 323

Warning: Undefined variable $rc in /homepages/6/d276339138/htdocs/weather/20190804/ssi/nwsProduct.php on line 325

Warning: Undefined variable $rc in /homepages/6/d276339138/htdocs/weather/20190804/ssi/nwsProduct.php on line 323

Warning: Undefined variable $rc in /homepages/6/d276339138/htdocs/weather/20190804/ssi/nwsProduct.php on line 325

Warning: Undefined variable $rc in /homepages/6/d276339138/htdocs/weather/20190804/ssi/nwsProduct.php on line 323

Warning: Undefined variable $rc in /homepages/6/d276339138/htdocs/weather/20190804/ssi/nwsProduct.php on line 325

Warning: Undefined variable $rc in /homepages/6/d276339138/htdocs/weather/20190804/ssi/nwsProduct.php on line 323

Warning: Undefined variable $rc in /homepages/6/d276339138/htdocs/weather/20190804/ssi/nwsProduct.php on line 325

Warning: Undefined variable $rc in /homepages/6/d276339138/htdocs/weather/20190804/ssi/nwsProduct.php on line 323

Warning: Undefined variable $rc in /homepages/6/d276339138/htdocs/weather/20190804/ssi/nwsProduct.php on line 325

Regional Weather Roundup
for Boston, MA

        
000
ASUS41 KBOX 022210
RWRBOX

REGIONAL WEATHER ROUNDUP
NATIONAL WEATHER SERVICE BOSTON/NORTON MA
500 PM EST FRI DEC 02 2022

NOTE:  "FAIR" INDICATES FEW OR NO CLOUDS BELOW 12,000 FEET WITH NO 
SIGNIFICANT WEATHER AND/OR OBSTRUCTIONS TO VISIBILITY.

MAZALL-022300-
EASTERN MASSACHUSETTS
  
CITY           SKY/WX    TMP DP  RH WIND       PRES   REMARKS
BOSTON         CLOUDY    42  25  50 S12       30.49R                  
BEVERLY        MOCLDY    39  27  62 S3        30.47R                  
LAWRENCE       CLOUDY    42  22  44 SE3       30.48R                  
BEDFORD        MOCLDY    41  23  48 S7        30.46R                  
NORWOOD        MOCLDY    41  26  55 S5        30.48S                  
MARSHFIELD       N/A     39  30  70 S7        30.49S                  
PLYMOUTH       MOCLDY    40  30  67 SW7       30.49S                  
TAUNTON          N/A    N/A N/A N/A MISG      30.49S                  
NEW BEDFORD    MOCLDY    41  31  67 CALM      30.49S                  
$$

MAZALL-022300-
CAPE COD AND THE ISLANDS
  
CITY           SKY/WX    TMP DP  RH WIND       PRES   REMARKS
FALMOUTH       CLEAR     39  30  70 S9        30.50S                  
HYANNIS        PTCLDY    41  32  70 SW6       30.50R                  
CHATHAM        PTCLDY    41  31  67 CALM      30.52S                  
PROVINCETOWN   PTCLDY    41  32  70 SW9       30.52R                  
NANTUCKET      PTCLDY    46  35  65 SW12      30.52R                  
MARTHAS VNYRD  PTCLDY    41  32  70 W5        30.51R                  
$$
 
MAZALL-022300-
CENTRAL AND WESTERN MASSACHUSETTS
  
CITY           SKY/WX    TMP DP  RH WIND       PRES   REMARKS
WORCESTER      CLOUDY    40  21  46 S6        30.42F                  
FITCHBURG      CLOUDY    41  21  44 SE3       30.45S                  
ORANGE         CLOUDY    39  23  52 S6        30.44F                  
SPRINGFIELD    MOCLDY    40  22  49 S10       30.43S                  
WESTFIELD      MOCLDY    39  23  52 S7        30.44S                  
NORTH ADAMS    CLOUDY    34  26  72 CALM      30.39F                  
PITTSFIELD     CLOUDY    37  20  50 S8        30.37F WCI  31          
$$
 
RIZALL-022300-
RHODE ISLAND
  
CITY           SKY/WX    TMP DP  RH WIND       PRES   REMARKS
PROVIDENCE     MOCLDY    40  27  59 S7        30.50S                  
NEWPORT        CLOUDY    41  31  67 VRB3      30.49S                  
BLOCK ISLAND   MOCLDY    42  33  70 SW7       30.50F                  
SMITHFIELD     CLOUDY    39  23  52 VRB3      30.47S                  
WESTERLY       MOCLDY    38  29  70 CALM      30.49F                  
$$
 
CTZALL-022300-
CONNECTICUT
  
CITY           SKY/WX    TMP DP  RH WIND       PRES   REMARKS
BRADLEY INTL   MOCLDY    41  25  53 S12       30.46R                  
HARTFORD       MOCLDY    42  27  55 S6        30.47S                  
BRIDGEPORT     CLOUDY    43  30  60 SW10      30.48R                  
DANBURY        MOCLDY    41  25  53 S7        30.46S                  
GROTON         CLOUDY    41  30  65 CALM      30.48F                  
NEW HAVEN      CLOUDY    43  32  65 CALM      30.47S                  
CHESTER        CLOUDY    39  28  65 CALM      30.47R                  
MERIDEN        MOCLDY    41  27  57 S6        30.47S                  
WILLIMANTIC    PTCLDY    40  26  57 S7        30.47F                  
OXFORD         CLOUDY    38  29  70 S6        30.45S                  
$$

MEZ002-015-021-024-NHZ003-005-008-011-012-014-VTZ005-008-022300-
NORTHERN NEW ENGLAND
  
CITY           SKY/WX    TMP DP  RH WIND       PRES   REMARKS
PORTLAND ME    PTCLDY    36  23  59 CALM      30.49R                  
BANGOR ME      PTCLDY    30  17  58 CALM      30.49R                  
CONCORD NH     MOCLDY    37  22  54 E7        30.45R WCI  32          
MANCHESTER NH  MOCLDY    42  22  44 SE9       30.43S                  
NASHUA NH      MOCLDY    39  25  57 CALM      30.46R                  
PORTSMOUTH NH  MOCLDY    37  25  60 SE3       30.46S                  
JAFFREY NH     MOCLDY    37  23  56 CALM      30.41S                  
KEENE NH       PTCLDY    37  24  59 SE3         N/A                   
BURLINGTON VT  MOCLDY    39  23  52 S15G22    30.33S WCI  31          
MT. WASHINGTON MOCLDY    19   0  42 SW37G44     N/A  WCI  -1          
$$

NYZ052-076-022300-
EASTERN NEW YORK
  
CITY           SKY/WX    TMP DP  RH WIND       PRES   REMARKS
ALBANY         MOCLDY    41  22  46 S10       30.39S                  
NEW YORK CITY  PTCLDY    41  25  53 S10       30.47S                  
$$
 
ANZALL-022300-
MARINE OBSERVATIONS
  
STATION/POSITION TIME  TEMP    WIND        PRES    VSBY  WAVE
                       AIR SEA DIR/SP/G                  HT/PER
                 (UTC) (F)     (DEG/KT/KT) (MB)    (MI)  (FT/S)
BOSTON BUOY      2150          210/ 12/ 16 1032.7R         2/11
BUZZARDS BAY     2100   43     230/ 14/ 16 1033.3R
NANTUCKET SOUND  2150   46     230/ 12/ 16 1033.1          1/ 2
MASS BAY-STELLWA 2004   42 50  170/  8/ 10 1031.9S  1 5/8  2/11
ISLE OF SHOALS   2100   41     180/ 13/ 15 1031.3S
S OF BLOCK IS    2126      55                N/A           2/ 7
$$

......................KEY.........................
  SKY/WX - SKY CONDITION/PRESENT WEATHER
  TMP    - TEMPERATURE IN FAHRENHEIT
  DWPT   - DEWPOINT IN FAHRENHEIT
  RH     - RELATIVE HUMIDITY IN PERCENT
  WIND   - DIRECTION AND SPEED IN MPH
  PRES   - MEAN SEA LEVEL PRESSURE IN INCHES OF HG
  WCI    - WIND CHILL INDEX
  VSB    - VISIBILITY IN MILES
  HX     - HEAT INDEX
  TC     - TEMPERATURE IN CELSIUS
  VRB    - VARIABLE WIND DIRECTION
  N/A    - NOT AVAILABLE
  
      

Other recent Regional Weather Roundups

Thu Dec 8, 2:10pm

Thu Dec 8, 1:10pm

Thu Dec 8, 12:10pm

Thu Dec 8, 11:10am

Thu Dec 8, 10:10am

Thu Dec 8, 9:10am

Thu Dec 8, 8:10am

Thu Dec 8, 7:10am

Thu Dec 8, 6:10am

Thu Dec 8, 5:10am

Thu Dec 8, 4:10am

Thu Dec 8, 3:10am

Thu Dec 8, 2:10am

Thu Dec 8, 1:10am

Thu Dec 8, 12:10am

Wed Dec 7, 11:10pm

Wed Dec 7, 10:10pm

Wed Dec 7, 9:10pm

Wed Dec 7, 8:10pm

Wed Dec 7, 7:10pm

Wed Dec 7, 6:10pm

Wed Dec 7, 5:10pm

Wed Dec 7, 4:10pm

Wed Dec 7, 3:10pm

Wed Dec 7, 2:10pm

Wed Dec 7, 1:10pm

Wed Dec 7, 12:10pm

Wed Dec 7, 11:10am

Wed Dec 7, 10:10am

Wed Dec 7, 9:10am

Wed Dec 7, 8:10am

Wed Dec 7, 7:10am

Wed Dec 7, 6:10am

Wed Dec 7, 5:10am

Wed Dec 7, 4:10am

Wed Dec 7, 3:10am

Wed Dec 7, 2:10am

Wed Dec 7, 1:10am

Wed Dec 7, 12:10am

Tue Dec 6, 11:10pm

Tue Dec 6, 10:10pm

Tue Dec 6, 9:10pm

Tue Dec 6, 8:10pm

Tue Dec 6, 7:10pm

Tue Dec 6, 6:10pm

Tue Dec 6, 5:10pm

Tue Dec 6, 4:10pm

Tue Dec 6, 3:10pm

Tue Dec 6, 2:10pm

Tue Dec 6, 1:10pm

Tue Dec 6, 12:10pm

Tue Dec 6, 11:10am

Tue Dec 6, 10:10am

Tue Dec 6, 9:10am

Tue Dec 6, 8:10am

Tue Dec 6, 7:10am

Tue Dec 6, 6:10am

Tue Dec 6, 5:10am

Tue Dec 6, 4:10am

Tue Dec 6, 3:10am

Tue Dec 6, 2:10am

Tue Dec 6, 1:10am

Tue Dec 6, 12:10am

Mon Dec 5, 11:10pm

Mon Dec 5, 10:10pm

Mon Dec 5, 9:10pm

Mon Dec 5, 8:10pm

Mon Dec 5, 7:10pm

Mon Dec 5, 6:10pm

Mon Dec 5, 5:10pm

Mon Dec 5, 4:10pm

Mon Dec 5, 3:10pm

Mon Dec 5, 2:10pm

Mon Dec 5, 1:10pm

Mon Dec 5, 12:10pm

Mon Dec 5, 11:10am

Mon Dec 5, 10:10am

Mon Dec 5, 9:10am

Mon Dec 5, 8:10am

Mon Dec 5, 7:10am

Mon Dec 5, 6:10am

Mon Dec 5, 5:10am

Mon Dec 5, 4:10am

Mon Dec 5, 3:10am

Mon Dec 5, 2:10am

Mon Dec 5, 1:10am

Mon Dec 5, 12:10am

Sun Dec 4, 11:10pm

Sun Dec 4, 10:10pm

Sun Dec 4, 9:10pm

Sun Dec 4, 8:10pm

Sun Dec 4, 7:10pm

Sun Dec 4, 6:10pm

Sun Dec 4, 5:10pm

Sun Dec 4, 4:10pm

Sun Dec 4, 3:10pm

Sun Dec 4, 2:10pm

Sun Dec 4, 1:10pm

Sun Dec 4, 12:10pm

Sun Dec 4, 11:10am

Sun Dec 4, 10:10am

Sun Dec 4, 9:10am

Sun Dec 4, 8:10am

Sun Dec 4, 7:10am

Sun Dec 4, 6:10am

Sun Dec 4, 5:10am

Sun Dec 4, 4:10am

Sun Dec 4, 3:10am

Sun Dec 4, 2:10am

Sun Dec 4, 1:10am

Sun Dec 4, 12:10am

Sat Dec 3, 11:10pm

Sat Dec 3, 10:10pm

Sat Dec 3, 9:10pm

Sat Dec 3, 8:10pm

Sat Dec 3, 7:10pm

Sat Dec 3, 6:10pm

Sat Dec 3, 5:10pm

Sat Dec 3, 4:10pm

Sat Dec 3, 3:10pm

Sat Dec 3, 2:10pm

Sat Dec 3, 1:10pm

Sat Dec 3, 12:10pm

Sat Dec 3, 11:10am

Sat Dec 3, 10:10am

Sat Dec 3, 9:10am

Sat Dec 3, 8:10am

Sat Dec 3, 7:10am

Sat Dec 3, 6:10am

Sat Dec 3, 5:10am

Sat Dec 3, 4:10am

Sat Dec 3, 3:10am

Sat Dec 3, 2:10am

Sat Dec 3, 1:10am

Sat Dec 3, 12:10am

Fri Dec 2, 11:10pm

Fri Dec 2, 10:10pm

Fri Dec 2, 9:10pm

Fri Dec 2, 8:10pm

Fri Dec 2, 7:10pm

Fri Dec 2, 6:10pm

Fri Dec 2, 4:10pm

Fri Dec 2, 3:10pm

Fri Dec 2, 2:10pm

Fri Dec 2, 1:10pm

Fri Dec 2, 12:10pm

Fri Dec 2, 11:10am

Fri Dec 2, 10:10am

Fri Dec 2, 9:10am

Fri Dec 2, 8:10am

Fri Dec 2, 7:10am

Fri Dec 2, 6:10am

Fri Dec 2, 5:10am

Fri Dec 2, 4:10am

Fri Dec 2, 3:10am

Fri Dec 2, 2:10am

Fri Dec 2, 1:10am

Fri Dec 2, 12:10am

Thu Dec 1, 11:10pm

Thu Dec 1, 10:10pm

Thu Dec 1, 9:10pm

Thu Dec 1, 8:10pm

Thu Dec 1, 7:10pm

Thu Dec 1, 6:10pm

Thu Dec 1, 5:10pm

Thu Dec 1, 4:10pm

Thu Dec 1, 3:10pm

Meta data:

ID: 1dbb52a1-eddc-4d20-a248-67b4d79da57e
Link: https://api.weather.gov/products/1dbb52a1-eddc-4d20-a248-67b4d79da57e